Weather History for Holdrege, NE

Change the Weather History Date:

Monday, December 10, 2012

  Actual Average Record
Temperature  
Mean Temperature 20 °F -  
Max Temperature 40 °F 41 °F 69 °F (1993)
Min Temperature 1 °F 17 °F -10 °F (1972)
Degree Days  
Heating Degree Days 44    
Moisture  
Dew Point 4 °F    
Average Humidity 54    
Maximum Humidity 80    
Minimum Humidity 27    
Precipitation  
Precipitation 0.00 in - - ()
Sea Level Pressure  
Sea Level Pressure 29.96 in    
Wind  
Wind Speed 9 mph (West)    
Max Wind Speed 18 mph    
Max Gust Speed 23 mph    
Visibility 10 miles    
Events      
Averages and records for this station are not official NWS values.
T = Trace of Precipitation, MM = Missing Value Source: NWS Daily Summary

Daily Weather History Graph

Daily Weather History Graph

Search for Another Location

Airport:

Trip Planner

Search our weather history database for the weather conditions in past years. The results will help you decide how hot, cold, wet, or windy it might be!

Date:

Astronomy

Dec. 10, 2012 Rise Set
Actual Time 7:50 AM CST 5:10 PM CST
Civil Twilight 7:19 AM CST 5:41 PM CST
Nautical Twilight 6:45 AM CST 6:15 PM CST
Astronomical Twilight 6:12 AM CST 6:48 PM CST
Moon 4:35 AM CST (12/10) 3:01 PM CST (12/10)
Length of Visible Light 10h 22m
Length of Day
9h 20m
Waning Crescent, 10% of the Moon is Illuminated
Dec 10
Waning Crescent
Dec 13
New
Dec 19
First Quarter
Dec 28
Full
Jan 4
Last Quarter

Hourly Weather History & Observations

Time (CST) Temp. Windchill Dew Point Humidity Pressure Visibility Wind Dir Wind Speed Gust Speed Precip Events Conditions
12:15 AM 8.6 °F -7.7 °F 2.1 °F 75% 30.16 in 10.0 mi NW 13.8 mph - N/A   Clear
12:35 AM 8.4 °F -7.3 °F 1.9 °F 75% 30.16 in 10.0 mi NW 12.7 mph - N/A   Clear
12:55 AM 7.5 °F -6.9 °F 1.4 °F 76% 30.16 in 10.0 mi NW 10.4 mph - N/A   Clear
1:15 AM 7.2 °F -5.4 °F 1.4 °F 77% 30.15 in 10.0 mi NW 8.1 mph - N/A   Clear
1:35 AM 6.8 °F -4.8 °F 1.0 °F 77% 30.15 in 10.0 mi WNW 6.9 mph - N/A   Clear
1:55 AM 6.4 °F -7.3 °F 0.5 °F 77% 30.14 in 10.0 mi WNW 9.2 mph - N/A   Clear
2:15 AM 5.9 °F -5.8 °F 0.1 °F 77% 30.14 in 10.0 mi WNW 6.9 mph - N/A   Clear
2:55 AM 4.8 °F -8.3 °F -1.1 °F 76% 30.13 in 10.0 mi WNW 8.1 mph - N/A   Clear
3:15 AM 4.1 °F -8.0 °F -1.5 °F 78% 30.12 in 10.0 mi WNW 6.9 mph - N/A   Clear
3:35 AM 2.7 °F -8.4 °F -2.6 °F 79% 30.10 in 10.0 mi WNW 5.8 mph - N/A   Clear
3:55 AM 2.7 °F -8.4 °F -2.4 °F 79% 30.09 in 10.0 mi WNW 5.8 mph - N/A   Clear
4:15 AM 2.7 °F - -2.4 °F 79% 30.06 in 10.0 mi Calm Calm - N/A   Clear
4:35 AM 3.4 °F -12.0 °F -1.7 °F 80% 30.08 in 10.0 mi West 10.4 mph - N/A   Clear
4:55 AM 4.5 °F -9.8 °F -1.3 °F 77% 30.07 in 10.0 mi West 9.2 mph - N/A   Clear
5:15 AM 3.4 °F -12.0 °F -2.0 °F 78% 30.07 in 10.0 mi West 10.4 mph - N/A   Clear
5:35 AM 4.1 °F -9.2 °F -1.8 °F 76% 30.05 in 10.0 mi West 8.1 mph - N/A   Clear
6:15 AM 3.4 °F -8.9 °F -2.7 °F 76% 30.04 in 10.0 mi WSW 6.9 mph - N/A   Clear
6:35 AM 2.8 °F -9.5 °F -4.0 °F 73% 30.04 in 10.0 mi SW 6.9 mph - N/A   Clear
7:15 AM 1.4 °F -9.9 °F -4.9 °F 75% 30.03 in 10.0 mi SW 5.8 mph - N/A   Clear
7:35 AM 2.3 °F -7.2 °F -4.5 °F 73% 30.02 in 10.0 mi SW 4.6 mph - N/A   Clear
7:55 AM 2.7 °F -6.8 °F -4.7 °F 71% 30.01 in 10.0 mi SW 4.6 mph - N/A   Clear
8:15 AM 4.5 °F -7.6 °F -3.5 °F 70% 30.01 in 10.0 mi SSW 6.9 mph - N/A   Clear
8:35 AM 5.0 °F -4.1 °F -2.9 °F 70% 30.00 in 10.0 mi SSW 4.6 mph - N/A   Clear
8:55 AM 8.1 °F -3.2 °F -0.4 °F 68% 30.00 in 10.0 mi SW 6.9 mph - N/A   Clear
9:15 AM 9.7 °F -3.3 °F 0.5 °F 66% 30.00 in 10.0 mi SW 9.2 mph - N/A   Clear
9:35 AM 10.4 °F -0.4 °F 1.2 °F 66% 29.99 in 10.0 mi SW 6.9 mph - N/A   Clear
9:55 AM 13.5 °F 0.5 °F 2.8 °F 63% 29.98 in 10.0 mi SSW 10.4 mph - N/A   Clear
10:15 AM 18.7 °F 5.7 °F 5.7 °F 57% 29.97 in 10.0 mi SW 12.7 mph - N/A   Clear
10:35 AM 21.6 °F 10.6 °F 5.4 °F 50% 29.96 in 10.0 mi SW 10.4 mph - N/A   Clear
10:55 AM 23.9 °F 11.2 °F 5.7 °F 46% 29.96 in 10.0 mi SW 15.0 mph 18.4 mph N/A   Clear
11:15 AM 23.4 °F 10.1 °F 5.0 °F 45% 29.94 in 10.0 mi SW 16.1 mph 21.9 mph N/A   Clear
11:35 AM 24.8 °F 14.0 °F 5.5 °F 44% 29.93 in 10.0 mi WSW 11.5 mph 19.6 mph N/A   Clear
11:55 AM 25.9 °F 14.3 °F 5.2 °F 41% 29.91 in 10.0 mi SW 13.8 mph 20.7 mph N/A   Clear
12:15 PM 27.9 °F 16.8 °F 5.7 °F 39% 29.90 in 10.0 mi SW 13.8 mph 21.9 mph N/A   Clear
12:35 PM 30.0 °F 18.7 °F 5.9 °F 36% 29.89 in 10.0 mi SW 16.1 mph 21.9 mph N/A   Clear
12:55 PM 32.2 °F 21.4 °F 6.4 °F 34% 29.88 in 10.0 mi SW 16.1 mph - N/A   Clear
1:15 PM 35.1 °F 25.5 °F 6.8 °F 31% 29.87 in 10.0 mi WSW 15.0 mph 19.6 mph N/A   Clear
1:35 PM 36.3 °F 26.8 °F 6.8 °F 29% 29.86 in 10.0 mi West 16.1 mph 23.0 mph N/A   Clear
1:55 PM 37.4 °F 28.5 °F 7.2 °F 29% 29.84 in 10.0 mi West 15.0 mph - N/A   Clear
2:15 PM 37.9 °F 29.6 °F 7.3 °F 28% 29.84 in 10.0 mi West 13.8 mph 19.6 mph N/A   Clear
2:35 PM 39.4 °F 30.1 °F 7.3 °F 27% 29.83 in 10.0 mi West 18.4 mph 23.0 mph N/A   Clear
2:55 PM 40.1 °F 32.0 °F 7.9 °F 27% 29.83 in 10.0 mi West 15.0 mph - N/A   Clear
3:15 PM 40.3 °F 33.0 °F 8.6 °F 27% 29.83 in 10.0 mi WNW 12.7 mph 20.7 mph N/A   Clear
3:35 PM 40.3 °F 31.6 °F 9.5 °F 28% 29.83 in 10.0 mi WNW 17.3 mph 20.7 mph N/A   Clear
3:55 PM 40.3 °F 33.0 °F 9.9 °F 29% 29.83 in 10.0 mi WNW 12.7 mph - N/A   Clear
4:15 PM 40.1 °F 33.6 °F 9.5 °F 28% 29.83 in 10.0 mi WNW 10.4 mph 16.1 mph N/A   Clear
4:35 PM 39.6 °F 34.0 °F 9.5 °F 29% 29.83 in 10.0 mi WNW 8.1 mph - N/A   Clear
4:55 PM 38.3 °F 34.8 °F 9.3 °F 30% 29.83 in 10.0 mi West 4.6 mph - N/A   Clear
5:15 PM 34.0 °F 28.0 °F 8.2 °F 34% 29.84 in 10.0 mi West 6.9 mph - N/A   Clear
5:35 PM 32.7 °F 26.4 °F 8.4 °F 36% 29.84 in 10.0 mi WNW 6.9 mph - N/A   Clear
5:55 PM 31.8 °F 28.5 °F 7.9 °F 37% 29.84 in 10.0 mi WNW 3.5 mph - N/A   Clear
6:15 PM 30.0 °F 26.5 °F 8.1 °F 40% 29.85 in 10.0 mi West 3.5 mph - N/A   Clear
6:35 PM 29.8 °F 24.9 °F 7.7 °F 39% 29.85 in 10.0 mi WNW 4.6 mph - N/A   Clear
6:55 PM 26.8 °F 20.2 °F 7.5 °F 44% 29.86 in 10.0 mi NW 5.8 mph - N/A   Clear
7:15 PM 26.1 °F 21.9 °F 6.4 °F 43% 29.86 in 10.0 mi NW 3.5 mph - N/A   Clear
7:35 PM 23.7 °F 17.8 °F 5.5 °F 46% 29.87 in 10.0 mi WNW 4.6 mph - N/A   Clear
7:55 PM 25.3 °F 18.5 °F 6.8 °F 45% 29.88 in 10.0 mi NW 5.8 mph - N/A   Clear
8:15 PM 25.3 °F 18.5 °F 6.4 °F 45% 29.89 in 10.0 mi NW 5.8 mph - N/A   Clear
8:55 PM 28.6 °F 21.5 °F 9.7 °F 45% 29.90 in 10.0 mi North 6.9 mph - N/A   Clear
9:15 PM 27.9 °F 20.6 °F 9.3 °F 46% 29.91 in 10.0 mi NNW 6.9 mph - N/A   Clear
9:35 PM 26.4 °F 20.9 °F 9.3 °F 49% 29.91 in 10.0 mi NNW 4.6 mph - N/A   Clear
9:55 PM 25.2 °F - 9.0 °F 50% 29.92 in 10.0 mi Calm Calm - N/A   Clear
10:15 PM 24.8 °F 20.5 °F 8.4 °F 50% 29.92 in 10.0 mi NW 3.5 mph - N/A   Clear
10:35 PM 26.4 °F 22.4 °F 10.9 °F 52% 29.92 in 10.0 mi West 3.5 mph - N/A   Clear
10:55 PM 26.1 °F 20.5 °F 10.9 °F 53% 29.93 in 10.0 mi West 4.6 mph - N/A   Clear
11:15 PM 28.2 °F 22.0 °F 12.7 °F 52% 29.93 in 10.0 mi West 5.8 mph - N/A   Clear
11:35 PM 29.7 °F 24.7 °F 13.5 °F 51% 29.93 in 10.0 mi West 4.6 mph - N/A   Clear
11:55 PM 30.0 °F 25.2 °F 14.5 °F 53% 29.94 in 10.0 mi WNW 4.6 mph - N/A   Clear